• In France
  • List of Countries
  • For 7 days
  • Water Temperature
  • Satellite Maps
  • Weather Map
  • Weather Widgets
  • user-avatar
    Login

    Hourly Weather Maydanskoe

    Today, 22 August, Wednesday

    Time Temperature Precipitation Wind Pressure Humidity
    00:00 +20°C° 0 mm 2 mps 711 mmHg 72%
    01:00 +20°C° 0 mm 2 mps 711 mmHg 69%
    02:00 +19°C° 0 mm 2 mps 711 mmHg 66%
    03:00 +19°C° 0 mm 2 mps 711 mmHg 65%
    04:00 +19°C° 0 mm 2 mps 711 mmHg 64%
    05:00 +20°C° 0 mm 2 mps 711 mmHg 63%
    06:00 +20°C° 0 mm 2 mps 711 mmHg 63%
    07:00 +23°C° 0 mm 2 mps 711 mmHg 58%
    08:00 +25°C° 0 mm 1 mps 711 mmHg 53%
    09:00 +27°C° 0 mm 1 mps 712 mmHg 48%
    10:00 +28°C° 0 mm 2 mps 711 mmHg 47%
    11:00 +28°C° 0 mm 2 mps 711 mmHg 47%
    12:00 +29°C° 0 mm 2 mps 711 mmHg 46%
    13:00 +29°C° 0.1 mm 2 mps 711 mmHg 48%
    14:00 +29°C° 0.1 mm 3 mps 711 mmHg 49%
    15:00 +29°C° 0.1 mm 3 mps 711 mmHg 51%
    16:00 +28°C° 0.3 mm 2 mps 711 mmHg 57%
    17:00 +27°C° 0.3 mm 2 mps 711 mmHg 62%
    18:00 +26°C° 0.3 mm 1 mps 711 mmHg 68%
    19:00 +25°C° 0.2 mm 1 mps 711 mmHg 71%
    20:00 +24°C° 0.2 mm 1 mps 711 mmHg 73%
    21:00 +23°C° 0.2 mm 1 mps 711 mmHg 76%
    22:00 +23°C° 0.1 mm 1 mps 711 mmHg 76%
    23:00 +21°C° 0.1 mm 2 mps 711 mmHg 77%

    Tomorrow, 23 August, Thursday

    Time Temperature Precipitation Wind Pressure Humidity
    00:00 +21°C° 0.1 mm 2 mps 711 mmHg 77%
    01:00 +20°C° 0 mm 2 mps 711 mmHg 77%
    02:00 +20°C° 0 mm 2 mps 711 mmHg 78%
    03:00 +20°C° 0 mm 2 mps 711 mmHg 78%
    04:00 +20°C° 0 mm 2 mps 711 mmHg 76%
    05:00 +20°C° 0 mm 2 mps 712 mmHg 75%
    06:00 +20°C° 0 mm 2 mps 712 mmHg 74%
    07:00 +23°C° 0 mm 2 mps 712 mmHg 66%
    08:00 +25°C° 0 mm 2 mps 712 mmHg 59%
    09:00 +27°C° 0 mm 2 mps 713 mmHg 51%
    10:00 +28°C° 0 mm 2 mps 713 mmHg 50%
    11:00 +28°C° 0 mm 2 mps 713 mmHg 48%
    12:00 +29°C° 0 mm 3 mps 713 mmHg 46%
    13:00 +29°C° 0 mm 3 mps 713 mmHg 48%
    14:00 +29°C° 0 mm 3 mps 713 mmHg 49%
    15:00 +29°C° 0 mm 3 mps 712 mmHg 50%
    16:00 +28°C° 0 mm 2 mps 712 mmHg 55%
    17:00 +27°C° 0 mm 2 mps 712 mmHg 59%
    18:00 +26°C° 0 mm 2 mps 712 mmHg 64%
    19:00 +24°C° 0 mm 2 mps 713 mmHg 68%
    20:00 +23°C° 0 mm 1 mps 713 mmHg 73%
    21:00 +22°C° 0 mm 1 mps 713 mmHg 77%
    22:00 +21°C° 0 mm 1 mps 713 mmHg 77%
    23:00 +21°C° 0 mm 1 mps 713 mmHg 78%

    Day after tomorrow, 24 August, Friday

    Time Temperature Precipitation Wind Pressure Humidity
    00:00 +21°C° 0 mm 1 mps 713 mmHg 78%
    01:00 +20°C° 0 mm 2 mps 713 mmHg 77%
    02:00 +19°C° 0 mm 2 mps 713 mmHg 77%
    03:00 +19°C° 0 mm 2 mps 713 mmHg 77%
    04:00 +19°C° 0 mm 2 mps 713 mmHg 76%
    05:00 +20°C° 0 mm 2 mps 713 mmHg 76%
    06:00 +20°C° 0 mm 2 mps 713 mmHg 75%
    07:00 +23°C° 0 mm 2 mps 713 mmHg 70%
    08:00 +25°C° 0 mm 3 mps 714 mmHg 65%
    09:00 +27°C° 0 mm 3 mps 714 mmHg 60%
    10:00 +27°C° 0 mm 3 mps 714 mmHg 60%
    11:00 +28°C° 0 mm 4 mps 713 mmHg 59%
    12:00 +28°C° 0 mm 4 mps 713 mmHg 59%
    13:00 +28°C° 0.1 mm 4 mps 713 mmHg 60%
    14:00 +28°C° 0.1 mm 4 mps 713 mmHg 61%
    15:00 +28°C° 0.1 mm 4 mps 712 mmHg 62%
    16:00 +27°C° 0.2 mm 4 mps 712 mmHg 67%
    17:00 +26°C° 0.2 mm 3 mps 712 mmHg 71%
    18:00 +24°C° 0.2 mm 3 mps 712 mmHg 75%
    19:00 +22°C° 0.1 mm 3 mps 712 mmHg 78%
    20:00 +21°C° 0.1 mm 2 mps 712 mmHg 80%
    21:00 +20°C° 0.1 mm 2 mps 712 mmHg 82%
    22:00 +20°C° 0 mm 2 mps 712 mmHg 80%
    23:00 +20°C° 0 mm 2 mps 712 mmHg 78%

    25 August, Saturday

    Time Temperature Precipitation Wind Pressure Humidity
    00:00 +20°C° 0 mm 2 mps 712 mmHg 75%
    01:00 +19°C° 0 mm 2 mps 711 mmHg 74%
    02:00 +19°C° 0 mm 2 mps 711 mmHg 74%
    03:00 +19°C° 0 mm 2 mps 711 mmHg 73%
    04:00 +19°C° 0 mm 2 mps 711 mmHg 72%
    05:00 +20°C° 0 mm 2 mps 711 mmHg 71%
    06:00 +20°C° 0 mm 2 mps 711 mmHg 70%
    07:00 +23°C° 0 mm 2 mps 711 mmHg 63%
    08:00 +26°C° 0 mm 2 mps 711 mmHg 56%
    09:00 +28°C° 0 mm 2 mps 711 mmHg 49%
    10:00 +29°C° 0 mm 3 mps 711 mmHg 47%
    11:00 +30°C° 0 mm 3 mps 711 mmHg 46%
    12:00 +30°C° 0 mm 4 mps 711 mmHg 45%
    13:00 +30°C° 0.2 mm 4 mps 710 mmHg 46%
    14:00 +30°C° 0.2 mm 4 mps 710 mmHg 47%
    15:00 +30°C° 0.2 mm 4 mps 710 mmHg 49%
    16:00 +28°C° 0.1 mm 3 mps 710 mmHg 54%
    17:00 +27°C° 0.1 mm 3 mps 710 mmHg 59%
    18:00 +26°C° 0.1 mm 2 mps 710 mmHg 64%
    19:00 +25°C° 0 mm 2 mps 710 mmHg 68%
    20:00 +23°C° 0 mm 2 mps 710 mmHg 73%
    21:00 +21°C° 0 mm 2 mps 710 mmHg 77%
    22:00 +21°C° 0 mm 2 mps 710 mmHg 76%
    23:00 +21°C° 0 mm 2 mps 710 mmHg 76%

    26 August, Sunday

    Time Temperature Precipitation Wind Pressure Humidity
    00:00 +21°C° 0 mm 2 mps 709 mmHg 76%
    01:00 +21°C° 0 mm 1 mps 709 mmHg 75%
    02:00 +21°C° 0 mm 1 mps 709 mmHg 74%
    03:00 +21°C° 0 mm 1 mps 709 mmHg 74%
    04:00 +21°C° 0 mm 1 mps 709 mmHg 71%
    05:00 +21°C° 0 mm 1 mps 709 mmHg 69%
    06:00 +22°C° 0 mm 1 mps 709 mmHg 67%
    07:00 +24°C° 0 mm 2 mps 709 mmHg 60%
    08:00 +26°C° 0 mm 2 mps 710 mmHg 54%
    09:00 +28°C° 0 mm 2 mps 710 mmHg 48%
    10:00 +29°C° 0 mm 3 mps 710 mmHg 46%
    11:00 +30°C° 0 mm 3 mps 709 mmHg 44%
    12:00 +32°C° 0 mm 4 mps 709 mmHg 42%
    13:00 +32°C° 0 mm 4 mps 709 mmHg 42%
    14:00 +30°C° 0 mm 4 mps 709 mmHg 43%
    15:00 +30°C° 0 mm 4 mps 708 mmHg 43%
    16:00 +29°C° 0 mm 3 mps 708 mmHg 49%
    17:00 +27°C° 0 mm 3 mps 708 mmHg 54%
    18:00 +26°C° 0 mm 3 mps 708 mmHg 60%
    19:00 +25°C° 0 mm 2 mps 708 mmHg 63%
    20:00 +23°C° 0 mm 2 mps 708 mmHg 67%
    21:00 +21°C° 0 mm 2 mps 708 mmHg 70%
    22:00 +21°C° 0.1 mm 2 mps 708 mmHg 68%
    23:00 +21°C° 0.1 mm 2 mps 708 mmHg 65%

    27 August, Monday

    Time Temperature Precipitation Wind Pressure Humidity
    00:00 +21°C° 0.1 mm 2 mps 708 mmHg 63%
    01:00 +20°C° 0 mm 2 mps 708 mmHg 61%
    02:00 +21°C° 0 mm 1 mps 708 mmHg 59%
    03:00 +21°C° 0 mm 1 mps 708 mmHg 58%
    04:00 +21°C° 0 mm 1 mps 708 mmHg 57%
    05:00 +21°C° 0 mm 1 mps 708 mmHg 57%
    06:00 +21°C° 0 mm 1 mps 708 mmHg 57%
    07:00 +24°C° 0 mm 1 mps 708 mmHg 53%
    08:00 +26°C° 0 mm 2 mps 709 mmHg 48%
    09:00 +28°C° 0 mm 2 mps 709 mmHg 44%
    10:00 +29°C° 0 mm 2 mps 709 mmHg 43%
    11:00 +29°C° 0 mm 3 mps 709 mmHg 43%
    12:00 +30°C° 0 mm 3 mps 709 mmHg 42%
    13:00 +30°C° 0.2 mm 3 mps 709 mmHg 44%
    14:00 +29°C° 0.2 mm 3 mps 708 mmHg 45%
    15:00 +29°C° 0.2 mm 3 mps 708 mmHg 47%
    16:00 +28°C° 0.2 mm 3 mps 708 mmHg 53%
    17:00 +26°C° 0.2 mm 2 mps 709 mmHg 59%
    18:00 +25°C° 0.2 mm 2 mps 709 mmHg 65%
    19:00 +24°C° 0.2 mm 2 mps 709 mmHg 70%
    20:00 +23°C° 0.2 mm 1 mps 709 mmHg 76%
    21:00 +21°C° 0.2 mm 1 mps 709 mmHg 81%
    22:00 +21°C° 0.1 mm 1 mps 709 mmHg 81%
    23:00 +21°C° 0.1 mm 1 mps 709 mmHg 81%
    Show more